Skip Page Navigation
NASA JPL Caltech
NASA Logo - Jet Propulsion Laboratory + View the NASA Portal
+ Center for Near-Earth Object Studies
JPL Home Earth Solar System Stars & Galaxies Technology
JPL Solar System Dynamics
BODIES ORBITS EPHEMERIDES TOOLS PHYSICAL DATA DISCOVERY FAQ SITE MAP
JPL Small-Body Database Browser
Search: [ help ]  
90487 Witherspoon (2004 DW12)
Classification: Outer Main-belt Asteroid          SPK-ID: 2090487
Ephemeris | Orbit Diagram | Orbital Elements | Mission Design | Physical Parameters | Discovery Circumstances | Close-Approach Data ]

[ show orbit diagram ]
Orbital Elements at Epoch 2459000.5 (2020-May-31.0) TDB
Reference: JPL 19 (heliocentric ecliptic J2000)
 Element Value Uncertainty (1-sigma)   Units 
e .01525270324637819 4.7256e-08  
a 3.237778882938043 3.3947e-08 au
q 3.188394002459199 1.4852e-07 au
i 21.38197880810738 5.9727e-06 deg
node 162.4318587952809 1.4115e-05 deg
peri 110.0062816827444 0.00025856 deg
M 188.4786206779989 0.00026274 deg
tp 2460014.376287573141
(2023-Mar-10.87628757)
0.0015612 TDB
period 2127.988154999128
5.83
3.3467e-05
9.163e-08
d
yr
n .1691738739965625 2.6606e-09 deg/d
Q 3.287163763416887 3.4465e-08 au
  Orbit Determination Parameters
   # obs. used (total)      650  
   data-arc span      7985 days (21.86 yr)  
   first obs. used      1998-03-20  
   last obs. used      2020-01-29  
   planetary ephem.      DE431  
   SB-pert. ephem.      SB431-N16  
   condition code      0  
   norm. resid. RMS      .57299  
   source      ORB  
   producer      Otto Matic  
   solution date      2020-Feb-23 22:12:28  

Additional Information
 Earth MOID = 2.20444 au 
 Jupiter MOID = 1.74925 au 
 T_jup = 3.076 
[ show covariance matrix ]

Ephemeris | Orbit Diagram | Orbital Elements | Mission Design | Physical Parameters | Discovery Circumstances | Close-Approach Data ]

Physical Parameter Table
Parameter Symbol Value Units Sigma Reference Notes
absolute magnitude H 14.4   n/a MPO453343  
diameter diameter 7.319 km 0.107 urn:nasa:pds:neowise_diameters_albedos::2.0[mainbelt] (http://adsabs.harvard.edu/abs/2011ApJ...741...68M)  
geometric albedo albedo 0.060   0.007 urn:nasa:pds:neowise_diameters_albedos::2.0[mainbelt] (http://adsabs.harvard.edu/abs/2011ApJ...741...68M)  

90487 Witherspoon           Discovered 2004 Feb. 16 by the Catalina Sky Survey.
Tom Witherspoon Sr. (1921-2014) was a well known fossil educator in the Midwest U.S. Thousands of people, not just children, were introduced to the world of paleontology through his efforts and generosity. In 2007 he received the Charles H. Sternberg award for outstanding lifetime achievement in the field of paleontology.
NOTE: some special characters may not display properly (any characters within {} are an attempt to place the proper accent above a character)
Reference: MPC batch dated 2015-03-05Last Updated: 2015-03-09

[ show close-approach data ]
Alternate Designations
 2004 DW12 = 1998 FB133 = 1999 KW2 
Ephemeris | Orbit Diagram | Orbital Elements | Mission Design | Physical Parameters | Discovery Circumstances | Close-Approach Data ]
ABOUT SSD CREDITS/AWARDS PRIVACY/COPYRIGHT GLOSSARY LINKS
FirstGov 2020-Sep-20 12:36 UT
(server date/time)  
NASA Home Page
Site Manager:   Ryan S. Park
Webmaster  Alan B. Chamberlin